This demonstration page uses our WeatherBlox Daily Observations layout. Learn more.

Left ArrowRight Arrow

Hourly Observations for September 2, 2015

Temp ( °F °C ) Dew Point ( °F °C ) Humidity (%) Winds ( mph kmh ) Pressure ( in mb ) Visibility ( mi km ) Precip ( " mm )
12:53 am 00:53 Clear 75 23.9 64 17.8 69 69 S 9 15 29.85 1011 10 16 0.00 0.00
1:53 am 01:53 Clear 75 23.9 64 17.8 69 69 S 7 11 29.84 1011 10 16 0.00 0.00
2:53 am 02:53 Clear 73 22.8 64 17.8 74 74 S 6 9 29.83 1010 10 16 0.00 0.00
3:53 am 03:53 Clear 71 21.7 63 17.2 76 76 S 7 11 29.83 1010 10 16 0.00 0.00
4:53 am 04:53 Clear 71 21.7 62 16.7 73 73 S 6 9 29.83 1010 10 16 0.00 0.00
5:53 am 05:53 Clear 69 20.6 61 16.1 76 76 S 5 7 29.83 1010 10 16 0.00 0.00
6:53 am 06:53 Clear 68 20 60 15.6 76 76 S 7 11 29.83 1010 10 16 0.00 0.00
7:53 am 07:53 Sunny 68 20 60 15.6 76 76 S 7 11 29.85 1011 10 16 0.00 0.00
8:53 am 08:53 Sunny 73 22.8 61 16.1 66 66 SSW 8 13 29.85 1011 10 16 0.00 0.00
9:53 am 09:53 Sunny 77 25 62 16.7 60 60 SSW 13 20 29.84 1011 10 16 0.00 0.00
10:53 am 10:53 Sunny 82 27.8 62 16.7 51 51 SSW 8 13 29.84 1010 10 16 0.00 0.00
11:53 am 11:53 Sunny 86 30 64 17.8 48 48 S 8 13 29.84 1010 10 16 0.00 0.00
12:53 pm 12:53 Sunny 88 31.1 63 17.2 43 43 SSW 10 17 29.83 1010 10 16 0.00 0.00
1:53 pm 13:53 Sunny 92 33.3 64 17.8 40 40 S 9 15 29.82 1010 10 16 0.00 0.00
2:53 pm 14:53 Sunny 94 34.4 63 17.2 36 36 S 12 19 29.80 1009 10 16 0.00 0.00
3:53 pm 15:53 Sunny 94 34.4 62 16.7 35 35 S 13 20 29.78 1009 10 16 0.00 0.00
4:53 pm 16:53 Sunny 94 34.4 63 17.2 36 36 SSE 10 17 29.77 1008 10 16 0.00 0.00
5:53 pm 17:53 Sunny 93 33.9 65 18.3 40 40 S 6 9 29.77 1008 10 16 0.00 0.00
6:53 pm 18:53 Sunny 91 32.8 65 18.3 42 42 S 7 11 29.76 1008 10 16 0.00 0.00
7:53 pm 19:53 Sunny 86 30 64 17.8 48 48 SE 5 7 29.77 1008 10 16 0.00 0.00
8:53 pm 20:53 Clear 85 29.4 65 18.3 51 51 SSE 12 19 29.78 1008 10 16 0.00 0.00
9:53 pm 21:53 Clear 82 27.8 64 17.8 55 55 S 10 17 29.79 1009 10 16 0.00 0.00
10:53 pm 22:53 Clear 82 27.8 62 16.7 51 51 SSE 10 17 29.79 1009 10 16 0.00 0.00
11:53 pm 23:53 Clear 79 26.1 62 16.7 56 56 S 9 15 29.79 1009 10 16 0.00 0.00

Powered by AerisWeather